Time,TemperatureF,DewpointF,PressureIn,WindDirection,WindDirectionDegrees,WindSpeedMPH,WindSpeedGustMPH,Humidity,HourlyPrecipIn,Conditions,Clouds,dailyrainin,SoftwareType,DateUTC
2013-01-11 00:02:00,39.0,25.0,-100.00,NE,46,4.0,5.0,58,-99.99,,,-99.99,,2013-01-11 08:02:00,
2013-01-11 00:12:00,38.0,26.0,-100.00,NE,41,4.0,5.0,62,-99.99,,,-99.99,,2013-01-11 08:12:00,
2013-01-11 00:32:00,37.0,27.0,-100.00,NE,47,6.0,8.0,66,-99.99,,,-99.99,,2013-01-11 08:32:00,
2013-01-11 00:42:00,36.0,26.0,-100.00,NE,49,6.0,7.0,67,-99.99,,,-99.99,,2013-01-11 08:42:00,
2013-01-11 00:52:00,36.0,26.0,-100.00,NE,49,6.0,9.0,68,-99.99,,,-99.99,,2013-01-11 08:52:00,
2013-01-11 01:02:00,35.0,26.0,-100.00,NE,39,6.0,9.0,70,-99.99,,,-99.99,,2013-01-11 09:02:00,
2013-01-11 01:12:00,35.0,26.0,-100.00,NE,50,5.0,8.0,69,-99.99,,,-99.99,,2013-01-11 09:12:00,
2013-01-11 01:32:00,35.0,27.0,-100.00,NE,41,6.0,9.0,71,-99.99,,,-99.99,,2013-01-11 09:32:00,
2013-01-11 01:52:00,35.0,27.0,-100.00,NE,51,3.0,5.0,72,-99.99,,,-99.99,,2013-01-11 09:52:00,
2013-01-11 02:02:00,34.0,26.0,-100.00,NE,51,4.0,9.0,72,-99.99,,,-99.99,,2013-01-11 10:02:00,
2013-01-11 02:12:00,34.0,27.0,-100.00,NE,48,6.0,10.0,74,-99.99,,,-99.99,,2013-01-11 10:12:00,
2013-01-11 02:22:00,34.0,27.0,-100.00,NE,48,5.0,7.0,75,-99.99,,,-99.99,,2013-01-11 10:22:00,
2013-01-11 02:32:00,33.0,26.0,-100.00,NE,47,5.0,6.0,76,-99.99,,,-99.99,,2013-01-11 10:32:00,
2013-01-11 02:42:00,32.0,26.0,-100.00,NE,52,6.0,8.0,79,-99.99,,,-99.99,,2013-01-11 10:42:00,
2013-01-11 02:52:00,32.0,26.0,-100.00,NE,40,6.0,8.0,79,-99.99,,,-99.99,,2013-01-11 10:52:00,
2013-01-11 03:02:00,32.0,27.0,-100.00,NE,37,4.0,7.0,80,-99.99,,,-99.99,,2013-01-11 11:02:00,
2013-01-11 03:12:00,32.0,27.0,-100.00,NE,49,4.0,6.0,80,-99.99,,,-99.99,,2013-01-11 11:12:00,
2013-01-11 03:22:00,31.0,26.0,-100.00,NE,45,3.0,5.0,82,-99.99,,,-99.99,,2013-01-11 11:22:00,
2013-01-11 03:32:00,32.0,27.0,-100.00,NE,51,4.0,7.0,82,-99.99,,,-99.99,,2013-01-11 11:32:00,
2013-01-11 03:42:00,31.0,26.0,-100.00,NE,46,5.0,7.0,83,-99.99,,,-99.99,,2013-01-11 11:42:00,
2013-01-11 03:52:00,32.0,27.0,-100.00,NE,53,4.0,6.0,82,-99.99,,,-99.99,,2013-01-11 11:52:00,
2013-01-11 04:02:00,31.0,27.0,-100.00,NE,46,5.0,8.0,84,-99.99,,,-99.99,,2013-01-11 12:02:00,
2013-01-11 04:12:00,30.0,26.0,-100.00,ENE,58,4.0,7.0,84,-99.99,,,-99.99,,2013-01-11 12:12:00,
2013-01-11 04:22:00,30.0,26.0,-100.00,ENE,58,4.0,6.0,86,-99.99,,,-99.99,,2013-01-11 12:22:00,
2013-01-11 04:32:00,29.0,26.0,-100.00,NE,53,6.0,8.0,87,-99.99,,,-99.99,,2013-01-11 12:32:00,
2013-01-11 04:42:00,29.0,26.0,-100.00,NE,53,3.0,5.0,87,-99.99,,,-99.99,,2013-01-11 12:42:00,
2013-01-11 04:52:00,29.0,26.0,-100.00,NE,52,4.0,7.0,88,-99.99,,,-99.99,,2013-01-11 12:52:00,
2013-01-11 05:02:00,29.0,26.0,-100.00,NE,52,4.0,7.0,88,-99.99,,,-99.99,,2013-01-11 13:02:00,
2013-01-11 05:12:00,29.0,26.0,-100.00,NE,46,5.0,8.0,89,-99.99,,,-99.99,,2013-01-11 13:12:00,
2013-01-11 05:22:00,29.0,26.0,-100.00,ENE,65,3.0,5.0,88,-99.99,,,-99.99,,2013-01-11 13:22:00,
2013-01-11 05:32:00,29.0,26.0,-100.00,NE,56,4.0,6.0,88,-99.99,,,-99.99,,2013-01-11 13:32:00,
2013-01-11 05:42:00,29.0,26.0,-100.00,East,101,2.0,4.0,88,-99.99,,,-99.99,,2013-01-11 13:42:00,
2013-01-11 05:52:00,28.0,25.0,-100.00,NE,43,2.0,3.0,88,-99.99,,,-99.99,,2013-01-11 13:52:00,
2013-01-11 06:02:00,28.0,25.0,-100.00,NE,45,4.0,6.0,89,-99.99,,,-99.99,,2013-01-11 14:02:00,
2013-01-11 06:12:00,28.0,25.0,-100.00,NE,53,5.0,6.0,90,-99.99,,,-99.99,,2013-01-11 14:12:00,
2013-01-11 06:22:00,27.0,24.0,-100.00,NE,45,4.0,6.0,90,-99.99,,,-99.99,,2013-01-11 14:22:00,
2013-01-11 06:33:00,27.0,25.0,-100.00,NE,46,5.0,6.0,91,-99.99,,,-99.99,,2013-01-11 14:33:00,
2013-01-11 06:42:00,27.0,25.0,-100.00,NE,42,4.0,7.0,91,-99.99,,,-99.99,,2013-01-11 14:42:00,
2013-01-11 06:53:00,28.0,26.0,-100.00,NE,51,3.0,4.0,91,-99.99,,,-99.99,,2013-01-11 14:53:00,
2013-01-11 07:03:00,27.0,24.0,-100.00,NE,50,5.0,7.0,90,-99.99,,,-99.99,,2013-01-11 15:03:00,
2013-01-11 07:12:00,28.0,26.0,-100.00,NE,43,4.0,6.0,91,-99.99,,,-99.99,,2013-01-11 15:12:00,
2013-01-11 07:22:00,28.0,25.0,-100.00,ENE,61,2.0,4.0,89,-99.99,,,-99.99,,2013-01-11 15:22:00,
2013-01-11 07:32:00,28.0,25.0,-100.00,ENE,62,4.0,6.0,89,-99.99,,,-99.99,,2013-01-11 15:32:00,
2013-01-11 07:42:00,27.0,24.0,-100.00,ENE,61,5.0,6.0,89,-99.99,,,-99.99,,2013-01-11 15:42:00,
2013-01-11 08:12:00,28.0,25.0,-100.00,ENE,62,4.0,7.0,89,-99.99,,,-99.99,,2013-01-11 16:12:00,
2013-01-11 08:22:00,28.0,25.0,-100.00,NE,56,4.0,6.0,88,-99.99,,,-99.99,,2013-01-11 16:22:00,
2013-01-11 08:32:00,29.0,25.0,-100.00,ENE,69,4.0,5.0,86,-99.99,,,-99.99,,2013-01-11 16:32:00,
2013-01-11 08:42:00,30.0,26.0,-100.00,ENE,59,4.0,5.0,86,-99.99,,,-99.99,,2013-01-11 16:42:00,
2013-01-11 08:52:00,31.0,27.0,-100.00,ENE,63,3.0,5.0,84,-99.99,,,-99.99,,2013-01-11 16:52:00,
2013-01-11 09:02:00,34.0,28.0,-100.00,ENE,72,2.0,4.0,77,-99.99,,,-99.99,,2013-01-11 17:02:00,
2013-01-11 09:12:00,37.0,29.0,-100.00,ENE,77,1.0,2.0,74,-99.99,,,-99.99,,2013-01-11 17:12:00,
2013-01-11 09:22:00,39.0,29.0,-100.00,ENE,78,1.0,2.0,67,-99.99,,,-99.99,,2013-01-11 17:22:00,
2013-01-11 09:33:00,41.0,29.0,-100.00,East,97,2.0,3.0,62,-99.99,,,-99.99,,2013-01-11 17:33:00,
2013-01-11 09:42:00,42.0,28.0,-100.00,East,81,2.0,3.0,57,-99.99,,,-99.99,,2013-01-11 17:42:00,
2013-01-11 09:53:00,45.0,27.0,-100.00,East,101,2.0,3.0,50,-99.99,,,-99.99,,2013-01-11 17:53:00,
2013-01-11 10:02:00,48.0,24.0,-100.00,North,354,3.0,7.0,39,-99.99,,,-99.99,,2013-01-11 18:02:00,
2013-01-11 10:12:00,48.0,22.0,-100.00,NW,317,5.0,10.0,35,-99.99,,,-99.99,,2013-01-11 18:12:00,
2013-01-11 10:23:00,48.0,21.0,-100.00,NW,321,7.0,13.0,34,-99.99,,,-99.99,,2013-01-11 18:23:00,
2013-01-11 10:32:00,48.0,21.0,-100.00,NW,322,6.0,11.0,34,-99.99,,,-99.99,,2013-01-11 18:32:00,
2013-01-11 10:42:00,48.0,21.0,-100.00,NNW,337,6.0,12.0,34,-99.99,,,-99.99,,2013-01-11 18:42:00,
2013-01-11 10:53:00,49.0,23.0,-100.00,NNW,340,5.0,12.0,35,-99.99,,,-99.99,,2013-01-11 18:53:00,
2013-01-11 11:02:00,50.0,22.0,-100.00,NW,312,6.0,11.0,33,-99.99,,,-99.99,,2013-01-11 19:02:00,
2013-01-11 11:12:00,50.0,21.0,-100.00,NW,319,7.0,11.0,31,-99.99,,,-99.99,,2013-01-11 19:12:00,
2013-01-11 11:22:00,50.0,21.0,-100.00,NW,323,8.0,15.0,31,-99.99,,,-99.99,,2013-01-11 19:22:00,
2013-01-11 11:32:00,50.0,20.0,-100.00,NW,323,9.0,16.0,30,-99.99,,,-99.99,,2013-01-11 19:32:00,
2013-01-11 11:42:00,51.0,21.0,-100.00,NW,307,8.0,14.0,30,-99.99,,,-99.99,,2013-01-11 19:42:00,
2013-01-11 11:52:00,51.0,20.0,-100.00,NW,322,7.0,15.0,29,-99.99,,,-99.99,,2013-01-11 19:52:00,
2013-01-11 12:02:00,51.0,21.0,-100.00,NW,321,8.0,17.0,30,-99.99,,,-99.99,,2013-01-11 20:02:00,
2013-01-11 12:12:00,51.0,20.0,-100.00,NW,315,7.0,13.0,29,-99.99,,,-99.99,,2013-01-11 20:12:00,
2013-01-11 12:22:00,52.0,21.0,-100.00,NW,320,6.0,13.0,29,-99.99,,,-99.99,,2013-01-11 20:22:00,
2013-01-11 12:32:00,51.0,21.0,-100.00,NNW,332,7.0,17.0,30,-99.99,,,-99.99,,2013-01-11 20:32:00,
2013-01-11 12:43:00,52.0,21.0,-100.00,North,9,5.0,10.0,29,-99.99,,,-99.99,,2013-01-11 20:43:00,
2013-01-11 12:52:00,52.0,21.0,-100.00,NNW,343,5.0,10.0,29,-99.99,,,-99.99,,2013-01-11 20:52:00,
2013-01-11 13:02:00,53.0,22.0,-100.00,SW,234,5.0,12.0,29,-99.99,,,-99.99,,2013-01-11 21:02:00,
2013-01-11 13:12:00,53.0,20.0,-100.00,WNW,290,5.0,13.0,27,-99.99,,,-99.99,,2013-01-11 21:12:00,
2013-01-11 13:22:00,53.0,19.0,-100.00,NNW,328,7.0,19.0,26,-99.99,,,-99.99,,2013-01-11 21:22:00,
2013-01-11 13:32:00,53.0,22.0,-100.00,WNW,285,5.0,11.0,29,-99.99,,,-99.99,,2013-01-11 21:32:00,
2013-01-11 13:42:00,53.0,24.0,-100.00,WSW,242,8.0,19.0,32,-99.99,,,-99.99,,2013-01-11 21:42:00,
2013-01-11 13:52:00,53.0,24.0,-100.00,WSW,242,11.0,17.0,32,-99.99,,,-99.99,,2013-01-11 21:52:00,
2013-01-11 14:02:00,53.0,25.0,-100.00,WSW,240,9.0,16.0,33,-99.99,,,-99.99,,2013-01-11 22:02:00,
2013-01-11 14:12:00,53.0,25.0,-100.00,SW,232,11.0,17.0,33,-99.99,,,-99.99,,2013-01-11 22:12:00,
2013-01-11 14:22:00,52.0,24.0,-100.00,SW,224,10.0,16.0,33,-99.99,,,-99.99,,2013-01-11 22:22:00,
2013-01-11 14:32:00,53.0,25.0,-100.00,SW,214,10.0,17.0,34,-99.99,,,-99.99,,2013-01-11 22:32:00,
2013-01-11 14:42:00,53.0,25.0,-100.00,SW,231,9.0,16.0,34,-99.99,,,-99.99,,2013-01-11 22:42:00,
2013-01-11 14:52:00,53.0,24.0,-100.00,SW,233,10.0,15.0,32,-99.99,,,-99.99,,2013-01-11 22:52:00,
2013-01-11 15:02:00,53.0,24.0,-100.00,SW,227,10.0,17.0,32,-99.99,,,-99.99,,2013-01-11 23:02:00,
2013-01-11 15:12:00,53.0,23.0,-100.00,WSW,241,9.0,14.0,31,-99.99,,,-99.99,,2013-01-11 23:12:00,
2013-01-11 15:22:00,52.0,23.0,-100.00,WSW,237,9.0,14.0,32,-99.99,,,-99.99,,2013-01-11 23:22:00,
2013-01-11 15:32:00,52.0,24.0,-100.00,WSW,239,10.0,14.0,33,-99.99,,,-99.99,,2013-01-11 23:32:00,
2013-01-11 15:42:00,52.0,24.0,-100.00,WSW,237,9.0,12.0,33,-99.99,,,-99.99,,2013-01-11 23:42:00,
2013-01-11 15:53:00,52.0,24.0,-100.00,WSW,247,8.0,13.0,33,-99.99,,,-99.99,,2013-01-11 23:53:00,
2013-01-11 16:02:00,52.0,25.0,-100.00,SW,235,9.0,13.0,34,-99.99,,,-99.99,,2013-01-12 00:02:00,
2013-01-11 16:12:00,52.0,25.0,-100.00,WSW,239,9.0,13.0,34,-99.99,,,-99.99,,2013-01-12 00:12:00,
2013-01-11 16:22:00,51.0,24.0,-100.00,SW,229,8.0,13.0,34,-99.99,,,-99.99,,2013-01-12 00:22:00,
2013-01-11 16:32:00,51.0,24.0,-100.00,SW,230,7.0,13.0,34,-99.99,,,-99.99,,2013-01-12 00:32:00,
2013-01-11 16:42:00,51.0,24.0,-100.00,SW,226,8.0,12.0,35,-99.99,,,-99.99,,2013-01-12 00:42:00,
2013-01-11 16:52:00,50.0,25.0,-100.00,WSW,242,7.0,12.0,37,-99.99,,,-99.99,,2013-01-12 00:52:00,
2013-01-11 17:02:00,50.0,25.0,-100.00,WSW,242,7.0,12.0,37,-99.99,,,-99.99,,2013-01-12 01:02:00,
2013-01-11 17:12:00,50.0,25.0,-100.00,WSW,237,6.0,11.0,38,-99.99,,,-99.99,,2013-01-12 01:12:00,
2013-01-11 17:22:00,49.0,26.0,-100.00,WSW,237,5.0,9.0,41,-99.99,,,-99.99,,2013-01-12 01:22:00,
2013-01-11 17:32:00,48.0,28.0,-100.00,West,263,4.0,9.0,45,-99.99,,,-99.99,,2013-01-12 01:32:00,
2013-01-11 17:42:00,48.0,28.0,-100.00,West,263,4.0,9.0,45,-99.99,,,-99.99,,2013-01-12 01:42:00,
2013-01-11 17:52:00,47.0,28.0,-100.00,NE,42,4.0,6.0,47,-99.99,,,-99.99,,2013-01-12 01:52:00,
2013-01-11 18:02:00,44.0,28.0,-100.00,NE,54,3.0,5.0,53,-99.99,,,-99.99,,2013-01-12 02:02:00,
2013-01-11 18:12:00,42.0,28.0,-100.00,NE,40,4.0,6.0,57,-99.99,,,-99.99,,2013-01-12 02:12:00,
2013-01-11 18:22:00,41.0,28.0,-100.00,NE,36,4.0,5.0,60,-99.99,,,-99.99,,2013-01-12 02:22:00,
2013-01-11 18:32:00,41.0,29.0,-100.00,NE,46,4.0,6.0,61,-99.99,,,-99.99,,2013-01-12 02:32:00,
2013-01-11 18:42:00,40.0,28.0,-100.00,NE,45,4.0,6.0,63,-99.99,,,-99.99,,2013-01-12 02:42:00,
2013-01-11 18:52:00,39.0,28.0,-100.00,NE,38,5.0,7.0,64,-99.99,,,-99.99,,2013-01-12 02:52:00,
2013-01-11 19:02:00,39.0,29.0,-100.00,NNE,33,5.0,7.0,66,-99.99,,,-99.99,,2013-01-12 03:02:00,
2013-01-11 19:11:00,38.0,28.0,-100.00,NE,44,4.0,6.0,67,-99.99,,,-99.99,,2013-01-12 03:11:00,
2013-01-11 19:22:00,37.0,27.0,-100.00,NE,47,4.0,7.0,68,-99.99,,,-99.99,,2013-01-12 03:22:00,
2013-01-11 19:32:00,36.0,28.0,-100.00,NE,53,5.0,6.0,71,-99.99,,,-99.99,,2013-01-12 03:32:00,
2013-01-11 19:42:00,36.0,28.0,-100.00,NE,53,5.0,6.0,71,-99.99,,,-99.99,,2013-01-12 03:42:00,
2013-01-11 19:52:00,35.0,27.0,-100.00,NE,48,5.0,7.0,73,-99.99,,,-99.99,,2013-01-12 03:52:00,
2013-01-11 20:02:00,35.0,27.0,-100.00,NE,48,5.0,7.0,73,-99.99,,,-99.99,,2013-01-12 04:02:00,
2013-01-11 20:12:00,35.0,28.0,-100.00,NE,50,4.0,7.0,75,-99.99,,,-99.99,,2013-01-12 04:12:00,
2013-01-11 20:22:00,35.0,28.0,-100.00,ENE,60,5.0,6.0,75,-99.99,,,-99.99,,2013-01-12 04:22:00,
2013-01-11 20:32:00,34.0,28.0,-100.00,ENE,57,6.0,7.0,78,-99.99,,,-99.99,,2013-01-12 04:32:00,
2013-01-11 20:52:00,33.0,27.0,-100.00,NE,47,6.0,7.0,79,-99.99,,,-99.99,,2013-01-12 04:52:00,
2013-01-11 21:03:00,34.0,28.0,-100.00,NE,36,5.0,8.0,79,-99.99,,,-99.99,,2013-01-12 05:03:00,
2013-01-11 21:12:00,33.0,27.0,-100.00,NE,54,4.0,6.0,79,-99.99,,,-99.99,,2013-01-12 05:12:00,
2013-01-11 21:32:00,33.0,28.0,-100.00,NE,56,5.0,7.0,82,-99.99,,,-99.99,,2013-01-12 05:32:00,
2013-01-11 21:42:00,32.0,27.0,-100.00,NE,53,5.0,7.0,83,-99.99,,,-99.99,,2013-01-12 05:42:00,
2013-01-11 21:52:00,32.0,28.0,-100.00,ENE,57,5.0,6.0,84,-99.99,,,-99.99,,2013-01-12 05:52:00,
2013-01-11 22:02:00,31.0,27.0,-100.00,ENE,63,4.0,5.0,84,-99.99,,,-99.99,,2013-01-12 06:02:00,
2013-01-11 22:12:00,31.0,27.0,-100.00,NE,53,4.0,5.0,85,-99.99,,,-99.99,,2013-01-12 06:12:00,
2013-01-11 22:32:00,30.0,26.0,-100.00,NE,56,4.0,6.0,86,-99.99,,,-99.99,,2013-01-12 06:32:00,
2013-01-11 22:52:00,30.0,26.0,-100.00,NE,53,4.0,6.0,86,-99.99,,,-99.99,,2013-01-12 06:52:00,
2013-01-11 23:02:00,30.0,26.0,-100.00,ENE,64,4.0,5.0,86,-99.99,,,-99.99,,2013-01-12 07:02:00,
2013-01-11 23:11:00,29.0,26.0,-100.00,ENE,58,5.0,7.0,87,-99.99,,,-99.99,,2013-01-12 07:11:00,
2013-01-11 23:32:00,29.0,26.0,-100.00,NE,49,4.0,7.0,88,-99.99,,,-99.99,,2013-01-12 07:32:00,
2013-01-11 23:52:00,29.0,26.0,-100.00,NE,50,5.0,8.0,88,-99.99,,,-99.99,,2013-01-12 07:52:00,